This is the latest recevied weather packets stored in our database for station/object EA3BNF-1. If no packets are shown the sender has not sent any weather packets the latest 1 day(s).
| Time | Temp. | Humidity | Pressure | Rain* | Wind** | Luminosity | Snow |
|---|---|---|---|---|---|---|---|
| 1778080720 | 21.67° C | 54% | 1010.6 hPa | - | - | - | - |
| 1778080064 | 21.67° C | 53% | 1010.7 hPa | - | - | - | - |
| 1778078753 | 21.67° C | 53% | 1010.9 hPa | - | - | - | - |
| 1778078097 | 21.67° C | 52% | 1010.9 hPa | - | - | - | - |
| 1778077442 | 21.67° C | 51% | 1011 hPa | - | - | - | - |
| 1778076786 | 21.67° C | 52% | 1011.2 hPa | - | - | - | - |
| 1778076130 | 21.11° C | 53% | 1011.3 hPa | - | - | - | - |
| 1778074163 | 21.11° C | 52% | 1011.6 hPa | - | - | - | - |
| 1778073508 | 21.11° C | 51% | 1011.7 hPa | - | - | - | - |
| 1778071541 | 20.56° C | 53% | 1011.9 hPa | - | - | - | - |
| 1778066296 | 19.44° C | 54% | 1012.4 hPa | - | - | - | - |
| 1778064985 | 19.44° C | 54% | 1012.5 hPa | - | - | - | - |
| 1778063018 | 18.89° C | 53% | 1012.7 hPa | - | - | - | - |
| 1778061051 | 18.33° C | 55% | 1013 hPa | - | - | - | - |
| 1778060395 | 18.33° C | 55% | 1012.9 hPa | - | - | - | - |
| 1778057773 | 17.78° C | 56% | 1012.9 hPa | - | - | - | - |
| 1778057117 | 17.78° C | 56% | 1012.8 hPa | - | - | - | - |
| 1778055150 | 17.22° C | 54% | 1012.5 hPa | - | - | - | - |
| 1778053839 | 16.67° C | 56% | 1012.4 hPa | - | - | - | - |
| 1778052528 | 16.11° C | 58% | 1012.4 hPa | - | - | - | - |
| 1778051872 | 15.56° C | 57% | 1012.3 hPa | - | - | - | - |
| 1778051216 | 15.56° C | 58% | 1012.3 hPa | - | - | - | - |
| 1778050561 | 15° C | 58% | 1012.3 hPa | - | - | - | - |
| 1778048594 | 14.44° C | 59% | 1012.2 hPa | - | - | - | - |
| 1778047938 | 14.44° C | 59% | 1012.1 hPa | - | - | - | - |
* Rain since midnight (hover to see other rain measurements)
** Current wind speed in m/s (hover to see current wind gust speed)